Tracking 23758 objects as of 28-Oct-2021
HD Live streaming from Space Station
objects crossing your sky now

SL-8 R/B

Track SL-8 R/B now!
10-day predictions


NORAD ID: 10992
Int'l Code: 1978-074B
Perigee: 964.2 km
Apogee: 992.3 km
Inclination: 82.9 °
Period: 104.5 minutes
Semi major axis: 7349 km
RCS: 4.7594 m2 (large)
Launch date: July 27, 1978
Source: Commonwealth of Independent States (former USSR) (CIS)
Launch site: PLESETSK MISSILE AND SPACE COMPLEX (PKMTR)

Note: This is a ROCKET BODY
aabbcc
Your satellite tracking list
Your tracking list is empty




NASA's NSSDC Master Catalog

Two Line Element Set (TLE):
1 10992U 78074B   21300.78304229 -.00000002  00000-0 -17227-4 0  9995
2 10992  82.9341 166.8231 0019099 344.9812  84.8981 13.77968554174315
Source of the keplerian elements: AFSPC